User: anonymous
Location: Starry Hill Observatory
(46.8582°N, 122.3590°W)
Time: 04:33:02
(UTC-07:00)
Language:

Cosmos 1300 Rocket - Orbit

View from above orbital plane
View from above orbital plane
View from above satellite
View from above satellite

Ground track
Ground track

The orbit data is extracted from the following two-line orbital elements,

1 12786U 81082B   14259.76279658  .00000382  00000-0  42739-4 0  9761
2 12786 082.4914 194.1338 0016630 334.0760 025.9621 14.84172536785794
Epoch (UTC): 16 September 2014 18:18:25
Eccentricity: 0.0016630
inclination: 82.4914°
perigee height: 604 km
apogee height: 628 km
right ascension of ascending node: 194.1338°
argument of perigee: 334.0760°
revolutions per day: 14.84172536
mean anomaly at epoch: 25.9621°
orbit number at epoch: 78579

The dashed part of the orbit path shows where the satellite is in the earth's shadow,  

DLR